Flag for U.S.A. Weather past 2 weeks in Kailua-Kona, Hawaii, U.S.A.

Now
79 °F

Overcast.


Feels Like: 81 °F
Forecast: 68 / 76 °F
Wind: 6 mph from West

Location: Keahole Airport

Current Time: May 6, 2015 at 12:39:19 PM

Latest Report: May 6, 2015 at 11:53 AM


Visibility: 10 mi

Pressure: 29.99 "Hg

Humidity: 62%

Dew point: 65 °F

Location of Kailua-KonaLocation

Historic Weather in Kailua-Kona — Graph

°F

Kailua-Kona temperature yesterday

Maximum temperature yesterday: 89 °F (at 3:53 PM)
Minimum temperature yesterday: 71 °F (at 5:53 AM)
Average temperature yesterday: 79 °F

Past Weeks' High & Low Weather Summary

 TemperatureHumidityPressure
High89 °F (May 5, 3:53 PM)85% (Apr 27, 12:53 AM)30.06 "Hg (Apr 27, 12:53 AM)
Low68 °F (May 2, 5:53 AM)27% (Apr 30, 5:00 PM)29.92 "Hg (May 3, 4:53 PM)
Average78 °F65%29.99 "Hg
* Reported Apr 21 10:53 AM — May 6 10:53 AM, Kailua-Kona, Weather by CustomWeather, © 2015

Note: Actual official high and low records may vary slightly from our data, if they occured in-between our weather recording intervals... More about our weather records

Advertising

Kailua-Kona weather history for previous 24 hours

 ConditionsComfort  
Time TempWeatherWind HumidityBarometerVisibility
10:53 AM
Wed, May 6
80 °FOvercast.6 mph64%30.00 "Hg10 mi
9:53 AM81 °FPassing clouds.8 mph60%30.00 "Hg10 mi
8:53 AM80 °FSunny.8 mph62%30.00 "Hg10 mi
7:53 AM79 °FPassing clouds.3 mph62%29.99 "Hg10 mi
6:53 AM75 °FSunny.No wind62%29.97 "Hg10 mi
5:53 AM72 °FSunny.7 mph71%29.96 "Hg10 mi
4:53 AM73 °FClear.7 mph59%29.96 "Hg10 mi
3:53 AM73 °FClear.6 mph66%29.96 "Hg10 mi
2:53 AM74 °FClear.7 mph67%29.97 "Hg10 mi
1:53 AM74 °FPassing clouds.No wind64%29.99 "Hg10 mi
12:53 AM76 °FClear.No wind60%30.01 "Hg10 mi
11:53 PM
Tue, May 5
75 °FClear.6 mph55%30.03 "Hg10 mi
10:53 PM77 °FClear.9 mph54%30.03 "Hg10 mi
9:53 PM77 °FClear.No wind56%30.02 "Hg10 mi
8:53 PM78 °FClear.No wind56%30.01 "Hg10 mi
7:53 PM80 °FClear.5 mph51%29.99 "Hg10 mi
6:53 PM81 °FClear.7 mph44%29.99 "Hg10 mi
5:53 PM85 °FPassing clouds.20 mph37%29.97 "Hg10 mi
4:53 PM88 °FSunny.23 mph35%29.95 "Hg10 mi
3:53 PM89 °FScattered clouds.23 mph35%29.96 "Hg10 mi
2:53 PM85 °FMore clouds than sun.8 mph43%29.98 "Hg10 mi
1:53 PM84 °FOvercast.8 mph49%30.00 "Hg10 mi
12:53 PM83 °FBroken clouds.9 mph55%30.01 "Hg10 mi
Weather by CustomWeather, © 2015

See weather overviewHow to use our weather pages